FW8630 Weather Reports


time (UTC)temp
C
wind
direction
speed
KPH
gust
KPH
rain 1hr
cm
rain 24hr
cm
rain mn
cm
humidity
%
barometer
mb
20260507011534 0 62 3.2 8.0 0.00 0.00 0.00 96 1015.7
20260507010036 0 51 3.2 9.7 0.00 0.00 0.00 97 1015.6
20260507004530 0 64 3.2 6.4 0.00 0.00 0.00 97 1015.6
20260507003040 0 56 3.2 8.0 0.00 0.00 0.00 97 1015.7
20260507001530 0 58 3.2 8.0 0.00 0.00 0.00 97 1015.6
20260507000033 0 53 3.2 8.0 0.00 0.00 0.00 96 1015.7
20260506234527 0 47 3.2 8.0 0.00 0.00 0.00 96 1015.6
20260506233022 1 63 3.2 8.0 0.00 0.00 0.00 96 1015.7
20260506231520 1 40 4.8 8.0 0.00 0.00 0.00 95 1015.8
20260506230020 1 67 3.2 6.4 0.00 0.00 0.00 95 1015.8
20260506224517 1 65 1.6 6.4 0.00 0.00 0.00 95 1015.7
20260506223014 1 92 3.2 6.4 0.00 0.00 0.00 94 1015.8
20260506221512 2 41 3.2 8.0 0.00 0.00 0.00 94 1015.5
20260506220010 2 44 6.4 14.5 0.00 0.00 0.00 94 1015.4
20260506214509 2 42 4.8 9.7 0.00 0.00 0.00 94 1015.3
20260506213007 2 48 4.8 8.0 0.00 0.00 0.00 93 1015.3
20260506211509 3 49 3.2 6.4 0.00 0.00 0.00 92 1015.2
20260506210007 3 46 3.2 8.0 0.00 0.00 0.00 91 1015.2
20260506204506 3 49 3.2 8.0 0.00 0.00 0.00 90 1015.3
20260506203005 4 49 4.8 8.0 0.00 0.00 0.00 89 1015.1
20260506201506 4 50 3.2 8.0 0.00 0.00 0.00 88 1015.1
20260506200004 5 48 3.2 11.3 0.00 0.00 0.00 86 1015.1
20260506194504 5 51 6.4 12.9 0.00 0.00 0.00 85 1015.1
20260506193003 5 58 6.4 14.5 0.00 0.00 0.00 83 1015.0
20260506191503 6 30 6.4 11.3 0.00 0.00 0.00 81 1014.9
20260506190007 6 49 4.8 9.7 0.00 0.00 0.00 78 1015.0
20260506184502 6 52 4.8 17.7 0.00 0.00 0.00 76 1015.0
20260506183106 7 63 6.4 17.7 0.00 0.00 0.00 75 1014.8
20260506181623 7 38 8.0 19.3 0.00 0.00 0.00 73 1014.9
20260506180059 7 56 4.8 19.3 0.00 0.00 0.00 72 1014.7
20260506174558 7 37 9.7 22.5 0.00 0.00 0.00 70 1014.7
20260506173106 8 53 9.7 20.9 0.00 0.00 0.00 68 1014.7
20260506171600 8 58 6.4 24.1 0.00 0.00 0.00 66 1014.7
20260506170057 8 48 9.7 19.3 0.00 0.00 0.00 64 1014.7
20260506164607 8 51 4.8 17.7 0.00 0.00 0.00 65 1014.8
20260506163055 8 98 11.3 20.9 0.00 0.00 0.00 62 1014.7
20260506161555 8 27 6.4 24.1 0.00 0.00 0.00 63 1014.9
20260506154601 9 44 14.5 27.4 0.00 0.00 0.00 60 1014.9
20260506153111 9 62 8.0 22.5 0.00 0.00 0.00 62 1014.8
20260506151553 9 16 14.5 22.5 0.00 0.00 0.00 60 1014.9
20260506150059 10 108 11.3 25.7 0.00 0.00 0.00 59 1015.0
20260506144557 10 86 4.8 25.7 0.00 0.00 0.00 61 1014.9
20260506143050 10 61 9.7 25.7 0.00 0.00 0.00 60 1015.0
20260506141551 10 46 8.0 20.9 0.00 0.00 0.00 61 1014.9
20260506140050 10 56 9.7 24.1 0.00 0.00 0.00 61 1014.9
20260506134550 10 74 12.9 25.7 0.00 0.00 0.00 56 1014.9
20260506133049 10 68 12.9 29.0 0.00 0.00 0.00 57 1014.8
20260506131553 10 119 9.7 27.4 0.00 0.00 0.00 61 1015.0
20260506130048 10 54 12.9 24.1 0.00 0.00 0.00 58 1015.0
20260506124547 11 27 9.7 25.7 0.00 0.00 0.00 55 1015.0
20260506123047 11 38 8.0 24.1 0.00 0.00 0.00 58 1015.1
20260506121545 11 35 14.5 27.4 0.00 0.00 0.00 58 1015.2
20260506120045 11 77 9.7 20.9 0.00 0.00 0.00 60 1015.4
20260506114544 10 59 9.7 25.7 0.00 0.00 0.00 61 1015.6
20260506113044 11 98 9.7 22.5 0.00 0.00 0.00 62 1015.5
20260506111545 10 96 14.5 27.4 0.00 0.00 0.00 63 1015.6
20260506110043 10 36 9.7 20.9 0.00 0.00 0.00 62 1015.6
20260506104543 11 43 8.0 25.7 0.00 0.00 0.00 62 1015.6
20260506103051 11 70 9.7 24.1 0.00 0.00 0.00 61 1015.5
20260506101541 11 36 9.7 24.1 0.00 0.00 0.00 60 1015.5
20260506100040 11 98 9.7 19.3 0.00 0.00 0.00 60 1015.3
20260506094540 11 29 11.3 20.9 0.00 0.00 0.00 60 1015.3
20260506093037 11 41 9.7 25.7 0.00 0.00 0.00 60 1015.2
20260506091541 11 46 11.3 20.9 0.00 0.00 0.00 61 1015.1
20260506090035 11 38 8.0 29.0 0.00 0.00 0.00 61 1015.0
20260506084537 11 13 11.3 20.9 0.00 0.00 0.00 61 1015.2
20260506083031 11 39 12.9 25.7 0.00 0.00 0.00 60 1015.3
20260506081530 11 58 9.7 20.9 0.00 0.00 0.00 59 1015.3
20260506073024 10 86 11.3 19.3 0.00 0.00 0.00 62 1015.2
20260506071521 10 53 9.7 16.1 0.00 0.00 0.00 64 1015.3
20260506061509 8 81 3.2 9.7 0.00 0.00 0.00 78 1015.1
20260506050103 5 46 4.8 9.7 0.00 0.00 0.00 89 1014.8
20260506044553 4 59 4.8 9.7 0.00 0.00 0.00 89 1014.8
20260506043050 4 48 4.8 12.9 0.00 0.00 0.00 89 1014.6
20260506041545 3 70 3.2 11.3 0.00 0.00 0.00 87 1014.8
20260506033035 0 51 1.6 6.4 0.00 0.00 0.00 88 1014.6
20260506031533 0 58 3.2 8.0 0.00 0.00 0.00 88 1014.6
20260506030131 0 61 4.8 6.4 0.00 0.00 0.00 88 1014.5
20260506023021 0 53 3.2 6.4 0.00 0.00 0.00 87 1014.4
20260506021521 0 60 0.0 3.2 0.00 0.00 0.00 88 1014.4
20260506020017 0 60 0.0 6.4 0.00 0.00 0.00 87 1014.3
20260506014516 0 61 1.6 4.8 0.00 0.00 0.00 87 1014.2
20260506013022 0 60 1.6 3.2 0.00 0.00 0.00 88 1014.0